Ephrata, WA
on Saturday, January 19, 2013

Saturday
Previous Day Next Day
Daily Summary
 ActualAverageRecord
Temperature
Mean Temperature °F 29°F  
Max Temperature 30°F 36°F 56°F (1968)
Min Temperature 20°F 23°F -4°F (1960)
Degree Days
Heating Degree Days 40 36  
Month to date heating degree days 730 707  
Since 1 July heating degree days 2985 3293  
Cooling Degree Days 0 0  
Month to date cooling degree days 0 0  
Year to date cooling degree days 0 0  
Moisture
Dew Point 20°F   
Average Humidity 81    
Maximum Humidity 92    
Minimum Humidity 69    
Precipitation
Precipitation 0.00 in 0.03 in 0.40 in (1957)
Month to date precipitation 0.18 0.60  
Year to date precipitation 0.18 0.60  
Wind
Wind Speed 4 mph   
Max Wind Speed 12 mph   
Max Gust Speed 14 mph   
Visibility 9 miles   
Events     

Key: T is trace of precipitation, MM is missing value
Source: NWS Daily Summary
Time(PST)TemperatureDew PointHumidity Pressure Visibility Wind DirectionWind SpeedGust SpeedPrecipitationEvents Conditions
12:53 AM 21.9°F 19.0°F 89% 30.41 in 8.0 miles North 3.5 mph - N/A   Clear
1:53 AM 23.0°F 19.9°F 88% 30.42 in 8.0 miles Calm Calm - N/A   Clear
2:53 AM 21.9°F 19.0°F 89% 30.43 in 7.0 miles Calm Calm - N/A   Clear
3:53 AM 21.9°F 19.0°F 89% 30.42 in 8.0 miles Calm Calm - N/A   Clear
4:53 AM 21.9°F 19.0°F 89% 30.42 in 8.0 miles Calm Calm - N/A   Clear
5:53 AM 21.0°F 18.0°F 88% 30.44 in 9.0 miles NE 3.5 mph - N/A   Clear
6:53 AM 21.0°F 18.0°F 88% 30.45 in 9.0 miles NE 5.8 mph - N/A   Clear
7:53 AM 19.9°F 17.1°F 89% 30.46 in 8.0 miles NNE 3.5 mph - N/A   Clear
8:53 AM 25.0°F 19.9°F 81% 30.48 in 10.0 miles NNE 5.8 mph - N/A   Partly Cloudy
9:53 AM 28.0°F 21.0°F 75% 30.49 in 10.0 miles NNE 9.2 mph - N/A   Clear
10:32 AM 30.2°F 21.2°F 69% 30.44 in 10.0 miles NE 8.1 mph - N/A   Mostly Cloudy
10:48 AM 28.4°F 21.2°F 74% 30.44 in 10.0 miles NNE 9.2 mph - N/A   Scattered Clouds
10:53 AM 28.9°F 19.9°F 69% 30.49 in 10.0 miles NE 10.4 mph - N/A   Partly Cloudy
11:53 AM 28.9°F 21.0°F 72% 30.47 in 10.0 miles NE 8.1 mph - N/A   Clear
12:53 PM 28.9°F 21.0°F 72% 30.46 in 10.0 miles ENE 8.1 mph - N/A   Clear
1:32 PM 28.4°F 21.2°F 74% 30.40 in 10.0 miles NE 8.1 mph - N/A   Mostly Cloudy
1:53 PM 28.9°F 21.0°F 72% 30.46 in 10.0 miles ENE 8.1 mph - N/A   Overcast
2:53 PM 28.0°F 21.9°F 78% 30.46 in 10.0 miles ENE 6.9 mph - N/A   Overcast
3:53 PM 28.0°F 21.9°F 78% 30.47 in 10.0 miles NE 5.8 mph - N/A   Mostly Cloudy
4:53 PM 26.1°F 21.0°F 81% 30.47 in 10.0 miles Calm Calm - N/A   Scattered Clouds
5:04 PM 26.6°F 21.2°F 80% 30.41 in 10.0 miles Calm Calm - N/A   Mostly Cloudy
5:53 PM 27.0°F 21.0°F 78% 30.48 in 10.0 miles NNW 3.5 mph - N/A   Scattered Clouds
6:53 PM 26.1°F 21.0°F 81% 30.48 in 10.0 miles NNW 4.6 mph - N/A   Clear
7:53 PM 26.1°F 19.9°F 78% 30.49 in 10.0 miles NW 4.6 mph - N/A   Clear
8:53 PM 26.1°F 21.0°F 81% 30.50 in 10.0 miles WNW 4.6 mph - N/A   Clear
9:53 PM 26.1°F 21.0°F 81% 30.50 in 10.0 miles SSW 3.5 mph - N/A   Clear
10:53 PM 23.0°F 19.9°F 88% 30.51 in 10.0 miles Calm Calm - N/A   Clear
11:53 PM 21.9°F 19.0°F 89% 30.51 in 8.0 miles Calm Calm - N/A   Clear
Moon Phase
Jan. 19 Jan. 26 Feb. 03 Feb. 10 Feb. 17
Sunrise:07:37 AM (PST) Moon Rise:11:14 AM (PST)1/19
Sunset:04:41 PM (PST) Moon Set:01:10 AM (PST)1/19

Copyright © 2014 The Weather Underground, Inc.